Location: La Silve
(44.2414°N, 5.8889°E)
Time: 07:58:25
(UTC+00:00)

NOSS 3-2 (A) - Pass Details

Date: 01 December 2020
Orbit: 789 x 1419 km, 63.4° (Epoch: 22 January)

Event Time Altitude Azimuth Distance (km) Brightness Sun altitude
Rises 18:32:19 0° 224° (SW) 3,334 7.0 -26.8°
Reaches altitude 10° 18:34:39 10° 227° (SW) 2,449 6.2 -27.2°
Maximum altitude 18:40:15 69° 310° (NW) 976 3.5 -28.2°
Enters shadow 18:41:26 55° 6° (N) 1,105 3.6 -28.4°
